Regional Weather Roundup
Issued by NWS Cleveland, OH

Home | Current Version | Previous Version | Graphics & Text | Print | Product List | Glossary On
Versions: 1 2 3 4 5 6 7 8 9 10 11 12 13 14 15 16 17 18 19 20 21 22 23 24 25 26 27 28 29 30 31 32 33 34 35 36 37 38 39 40 41 42 43 44 45 46 47 48 49 50
000
ASUS41 KCLE 041302
RWRCLE
OHIO REGIONAL WEATHER ROUNDUP
NATIONAL WEATHER SERVICE CLEVELAND, OH
900 AM EDT WED MAY 04 2016

NOTE: "FAIR" INDICATES FEW OR NO CLOUDS BELOW 12,000 FEET WITH NO
SIGNIFICANT WEATHER AND/OR OBSTRUCTIONS TO VISIBILITY.

OHZ001>008-015>018-024>027-034-035-043-044-041400-
   NORTHWEST OHIO

CITY           SKY/WX    TMP DP  RH WIND       PRES   REMARKS
DEFIANCE       CLOUDY    55  45  68 S8        29.61F
FINDLAY        PTSUNNY   53  44  71 S9        29.63F
TOLEDO EXPRESS CLOUDY    54  46  74 S8        29.61F
TOLEDO EXEC    CLOUDY    53  47  79 S8        29.63F
LIMA           MOSUNNY   55  47  74 S13       29.63F
$$

OHZ009>014-019>023-028>033-038-089-041400-
   NORTHEAST OHIO

CITY           SKY/WX    TMP DP  RH WIND       PRES   REMARKS
CLE-HOPKINS    PTSUNNY   56  46  69 S8        29.70F
CLE-LAKEFRONT  SUNNY     56  44  64 S9        29.67F
CUY CO. ARPT   NOT AVBL
LORAIN-ELYRIA  MOSUNNY   52  45  77 S12       29.67F
ASHTABULA      SUNNY     50  43  77 S6        29.71F
AKRON-CANTON   PTSUNNY   53  45  74 SW8       29.70F
WOOSTER        MOSUNNY   52  47  83 S7        29.70F
MANSFIELD      SUNNY     53  47  79 S7        29.67F
YOUNGSTOWN     PTSUNNY   54  40  59 S7        29.71S
$$

OHZ042-051>053-060>062-070>072-077>081-041400-
  SOUTHWEST OHIO

CITY           SKY/WX    TMP DP  RH WIND       PRES   REMARKS
CINC-COVINGTON NOT AVBL
CINC-LUNKEN    MOSUNNY   54  50  86 S8        29.72F
HAMILTON       SUNNY     55  47  74 VRB7      29.70F
DAYTON         PTSUNNY   53  46  77 SW16      29.67F
WRIGHT-PAT AFB MOSUNNY   55  49  83 S10       29.67F
DAYTON GENERAL MOSUNNY   52  47  83 S9        29.68F
WILMINGTON     CLOUDY    53  48  83 SW9       29.70F
$$

OHZ036-037-039>041-045>050-054>059-063>069-073>076-082>088-041400-
  CENTRAL AND SOUTHEAST OHIO

CITY           SKY/WX    TMP DP  RH WIND       PRES   REMARKS
COLUMBUS       MOSUNNY   52  48  86 S8        29.69F
OSU AIRPORT    SUNNY     54  48  80 SW9       29.69F
BOLTON FIELD   PTSUNNY   54  48  82 SW8       29.70F
RICKENBACK AFB NOT AVBL
NEWARK         SUNNY     54  48  80 S6        29.70F
MARION         CLOUDY    53  48  83 S10       29.67F
LANCASTER      SUNNY     55  48  77 S6        29.71F
ZANESVILLE     SUNNY     55  49  80 CALM      29.71F
NEW PHILLY     CLOUDY    52  47  83 E5        29.72S
$$



USA.gov is the U.S. government's official web portal to all federal, state and local government web resources and services.